Location: Unspecified
(0.0000°N, 0.0000°E)
Time: 12:57:39
(UTC+00:00)

S-56A Canister/Altair - Pass Details

Date: 29 November 2023
Orbit: 637 x 2487 km, 38.9° (Epoch: 10 September)

Event Time Altitude Azimuth Distance (km) Brightness Sun altitude
Rises 21:04:47 0° 314° (NW) 4,610 11.7 -44.7°
Reaches altitude 10° 21:07:27 10° 315° (NW) 3,848 11.2 -45.2°
Enters shadow 21:10:05 23° 317° (NW) 3,160 10.6 -45.8°
Exits shadow 21:35:22 - 130° (SE) 5,739 11.9 -51.1°
Sets 21:37:06 0° 130° (SE) 6,177 12.1 -51.4°
